Location: Bieujac
(44.5398°N, 0.1549°W)
Time: 15:11:40
(UTC+00:00)

Meteor PRIRODA - Pass Details

Date: 17 November 2019
Orbit: 490 x 512 km, 97.5° (Epoch: 06 December)

Event Time Altitude Azimuth Distance (km) Brightness Sun altitude
Rises 04:58:04 0° 12° (NNE) 2,602 7.3 -21.5°
Reaches altitude 10° 05:00:10 10° 13° (NNE) 1,709 6.4 -21.1°
Maximum altitude 05:03:51 89° 83° (E) 502 3.5 -20.4°
Drops below altitude 10° 05:07:29 10° 193° (SSW) 1,684 6.2 -19.8°
Sets 05:09:32 0° 194° (SSW) 2,558 7.2 -19.4°
